This is the latest recevied weather packets stored in our database for station/object M0JUI-1. If no packets are shown the sender has not sent any weather packets the latest 10 day(s).
| Time | Temp. | Humidity | Pressure | Rain* | Wind** | Luminosity | Snow |
|---|---|---|---|---|---|---|---|
| 1787813384 | 17.22° C | 14% | 1009.4 hPa | 0 mm | - | 32 W/m² | - |
| 1787813084 | 17.22° C | 14% | 1009.5 hPa | 0 mm | - | 38 W/m² | - |
| 1787812785 | 16.67° C | 14% | 1009.6 hPa | 0 mm | - | 39 W/m² | - |
| 1787812484 | 16.67° C | 14% | 1009.5 hPa | 0 mm | - | 41 W/m² | - |
| 1787812185 | 16.67° C | 14% | 1009.5 hPa | 0 mm | - | 41 W/m² | - |
| 1787811884 | 16.67° C | 14% | 1009.7 hPa | 0 mm | - | 37 W/m² | - |
| 1787811585 | 16.67° C | 14% | 1009.8 hPa | 0 mm | - | 35 W/m² | - |
| 1787811273 | 16.67° C | 14% | 1009.9 hPa | 0 mm | - | 32 W/m² | - |
| 1787810973 | 16.67° C | 14% | 1010 hPa | 0 mm | - | 30 W/m² | - |
| 1787810672 | 16.67° C | 14% | 1009.8 hPa | 0 mm | - | 26 W/m² | - |
| 1787810360 | 16.67° C | 14% | 1010 hPa | 0 mm | - | 22 W/m² | - |
| 1787810060 | 16.67° C | 14% | 1010.2 hPa | 0 mm | - | 18 W/m² | - |
| 1787809761 | 16.67° C | 14% | 1010.3 hPa | 0 mm | - | 16 W/m² | - |
| 1787809461 | 16.67° C | 14% | 1010.3 hPa | 0 mm | - | 15 W/m² | - |
| 1787809161 | 16.11° C | 14% | 1010.2 hPa | 0 mm | - | 12 W/m² | - |
| 1787808860 | 16.11° C | 14% | 1010.3 hPa | 0 mm | - | 10 W/m² | - |
| 1787808560 | 16.11° C | 14% | 1010.4 hPa | 0 mm | - | 7 W/m² | - |
| 1787808250 | 16.11° C | 14% | 1010.3 hPa | 0 mm | - | 4 W/m² | - |
| 1787807948 | 16.11° C | 15% | 1010.3 hPa | 0 mm | - | 3 W/m² | - |
| 1787807649 | 16.11° C | 15% | 1010.4 hPa | 0 mm | - | 0 W/m² | - |
| 1787807336 | 16.11° C | 15% | 1010.4 hPa | 0 mm | - | 0 W/m² | - |
| 1787807036 | 16.11° C | 15% | 1010.3 hPa | 0 mm | - | 0 W/m² | - |
| 1787806736 | 16.11° C | 15% | 1010.4 hPa | 0 mm | - | 0 W/m² | - |
| 1787806424 | 16.11° C | 15% | 1010.3 hPa | 0 mm | - | 0 W/m² | - |
| 1787806124 | 16.11° C | 15% | 1010.3 hPa | 0 mm | - | 0 W/m² | - |
* Rain latest hour (hover to see other rain measurements)
** Current wind speed in m/s (hover to see current wind gust speed)